Tracking 28052 objects as of 24-Sep-2023
HD Live streaming from Space Station
objects crossing your sky now

STARLINK-30087

Track STARLINK-30087 now!
10-day predictions
STARLINK-30087 is classified as:


NORAD ID: 56691
Int'l Code: 2023-067D
Perigee: 541.8 km
Apogee: 547.0 km
Inclination: 43.0 °
Period: 95.4 minutes
Semi major axis: 6915 km
RCS: Unknown
Launch date: May 19, 2023
Source: United States (US)
Launch site: AIR FORCE EASTERN TEST RANGE (AFETR)
Your satellite tracking list
Your tracking list is empty




NASA's NSSDC Master Catalog

Two Line Element Set (TLE):
1 56691U 23067D   23266.74381775  .00030050  00000-0  18411-2 0  9991
2 56691  43.0011 112.9769 0003774 282.3557  77.6865 15.09644120 19748
Source of the keplerian elements: AFSPC